Regional Weather Roundup
Issued by NWS

Home | Current Version | Previous Version | Text Only | Print | Product List | Glossary Off
Versions: 1 2 3 4 5 6 7 8 9 10 11 12 13 14 15 16 17 18 19 20 21 22 23 24 25 26 27 28 29 30 31 32 33 34 35 36 37 38 39 40 41 42 43 44 45 46 47 48 49 50

000
ASUS43 KTOP 200708
RWRKS

WEATHER ROUNDUP FOR KANSAS
NATIONAL WEATHER SERVICE GOODLAND KS
100 AM CST SAT JAN 20 2018

NOTE:  "FAIR" INDICATES FEW OR NO CLOUDS BELOW 12,000 FEET WITH NO
SIGNIFICANT WEATHER AND/OR OBSTRUCTIONS TO VISIBILITY.

KSZ001>006-013>018-027>032-041>047-200800-
NORTHWEST KANSAS

CITY           SKY/WX    TMP DP  RH WIND       PRES   REMARKS
GOODLAND       MOCLDY    31  19  61 W5        29.72S
HAYS           CLOUDY    34  16  47 S3        29.71S
HILL CITY      CLOUDY    29  19  66 N8        29.69F
RUSSELL        CLOUDY    41  22  46 S13       29.71R
$$

KSZ061>065-074>080-084>089-200800-
SOUTHWEST KANSAS

CITY           SKY/WX    TMP DP  RH WIND       PRES   REMARKS
DODGE CITY     CLOUDY    41  16  36 S12       29.70F
ELKHART        CLEAR     48  19  31 W13       29.73S
GARDEN CITY    CLOUDY   N/A N/A N/A S7        29.69F
GREAT BEND     CLOUDY    33  20  58 S7        29.73F
LIBERAL        CLOUDY    36  15  42 SW7       29.71F
PRATT          CLOUDY    40  23  50 S10       29.75F WCI  33
$$

KSZ066>073-081>083-090>101-200800-
SOUTHEAST KANSAS

CITY           SKY/WX    TMP DP  RH WIND       PRES   REMARKS
CHANUTE        CLOUDY    43  38  82 S20       29.89S
COFFEYVILLE    PTCLDY    44  39  82 S15       29.91F
HUTCHINSON     CLOUDY    39  31  72 S13       29.77F WCI  31
MEDICINE LODGE   N/A     41  31  67 SE9       29.76F
NEWTON         CLOUDY    42  35  76 S21       29.80S
PARSONS        CLOUDY    43  39  86 S9        29.92S
WICHITA INTL   CLOUDY    41  35  79 S12       29.81S
WICHITA JABRA  CLOUDY    43  38  82 S16       29.81S
WICHITA MCCONL CLOUDY    43  37  77 S18       29.81S
WINFIELD       CLOUDY    45  42  89 S18G28    29.84F
$$

KSZ007>012-019>026-033>040-048>060-102>105-200800-
NORTHEAST KANSAS

CITY           SKY/WX    TMP DP  RH WIND       PRES   REMARKS
CONCORDIA      CLOUDY    41  25  53 CALM      29.75R
EMPORIA        CLOUDY    40  33  76 S17       29.82S WCI  31
LAWRENCE       CLOUDY    42  34  73 S7        29.85S
MANHATTAN      CLOUDY    39  28  64 SW7       29.79S
MARYSVILLE     CLOUDY    36  28  75 S7        29.76F
OLATHE IND     CLOUDY    41  35  79 S12       29.86S
OLATHE EXE     CLOUDY    41  35  79 S12       29.86R
SALINA         CLOUDY    43  30  60 S14       29.75F
TOPEKA BILLARD CLOUDY    42  32  67 S8        29.83S
TOPEKA FORBES  CLOUDY    41  32  70 S12       29.81F
$$




USA.gov is the U.S. government's official web portal to all federal, state and local government web resources and services.